星链-32085 (STARLINK-32085 )

导读

STARLINK-32085是美国太空探索技术公司SpaceX星链互联网卫星星座的一员,于2024年5月8日发射入轨,属于星链星座扩容卫星,承担低轨卫星互联网组网任务。这类卫星运行于近地轨道,通过密集组网为全球提供高速互联网接入服务,覆盖偏远区域,同时也引发了天文观测与空间碎片相关讨论。

Basic Information
目录编号:
59685
目录名称:
STARLINK-32085
国际标识:
2024-086D
轨道中心:
EARTH
卫星名称:
星链-32085
卫星全名:
星链-32085 (STARLINK-32085 )
卫星状态:
在轨 (已飞行849 天)
发射日期:
2024-05-08 UTC
国别 :
美国 (US)
星等 :
--
Orbit Information
数据来源 国际轨道数据 AOE轨道数据
星历时间 2026-09-04T01:57:21+0800
9小时前
查看轨道信息
2026-09-01T23:00:00+0800
2天前
查看轨道信息
半长轴 6861.207km 6861.171km
偏心率 0.0001223 0.0002675
轨道倾角 43.005° 43.002°
近地点辐角 262.909° 252.081°
升交点赤经 134.338° 146.329°
平近点角 97.163° 298.464°
近地点 482.23km 481.198km
远地点 483.91km 484.87km
周期 94.267分钟 94.266分钟
每日圈数 15.275732 15.275852
Detailed Information
固有亮度:
5
最大亮度:
1.5
卫星平台:
Starlink v2.0 mini
覆盖范围:
全球
运营商:
太空探索技术公司
运营商所在国:
美国
制造商(研发单位):
太空探索技术公司
制造商所在国:
美国
使用方式:
暂无
Satellite Introduction
星链(Starlink)计划是由太空探索技术公司(SpaceX)提出的一个巨型低轨卫星互联网星座项目,计划在2019年至2024年间在太空搭建由约1.2万颗卫星组成的“星链”网络,其中1584颗将部署在地球上空550千米处的近地轨道,并从2020年开始工作。该卫星仍在工作。
2D Orbit Map
3D Orbit Map
Orbit Altitude Analysis Chart
Orbit Inclination Analysis Chart
Orbit Comprehensive Analysis Chart
View Comprehensive Chart
Conjunction Data List
Event ID Objects TCA Miss Dist (km) Collision Risk Probability Collision Risk Index (CRI) Action
CDM_260905-030005-968506-643521
2026-09-05T
03:00:35+0000
0.800 km
远距离
4.328876E-5 中风险 0.68
CDM_260905-043405-968506-643521
2026-09-05T
04:34:44+0000
2.053 km
极远距离
2.090454E-6 低风险 0.41